Location: Ferchesar
(52.6477°N, 12.4298°E)
Time: 16:55:28
(UTC+01:00)

Tiros 1 - Pass Details

Date: 07 December 2021
Orbit: 629 x 664 km, 48.4° (Epoch: 22 January)

Event Time Altitude Azimuth Distance (km) Brightness Sun altitude
Rises 19:23:25 0° 250° (WSW) 2,922 11.5 -30.1°
Reaches altitude 10° 19:25:47 10° 245° (WSW) 2,019 10.4 -30.5°
Enters shadow 19:28:13 28° 228° (SW) 1,186 8.8 -30.8°
Maximum altitude 19:30:14 48° 171° (S) 840 - -31.1°
Drops below altitude 10° 19:34:45 10° 98° (E) 2,041 - -31.8°
Sets 19:37:10 0° 93° (E) 2,958 - -32.2°
